Location: Praha
(50.0833°N, 14.4667°E)
Time: 02:51:06
(UTC+02:00)

ISS - Visible Passes

Search period start: 17 October 2019 00:00
Search period end: 27 October 2019 00:00
Orbit: 411 x 421 km, 51.6° (Epoch: 16 October)

Date Brightness Start Highest point End Pass type
(mag) Time Alt. Az. Time Alt. Az. Time Alt. Az.
24 Oct -0.9 06:50:24 10° S 06:52:39 17° SE 06:54:56 10° E visible
25 Oct -0.6 06:03:17 10° SSE 06:04:19 11° SE 06:05:21 10° ESE visible
26 Oct -2.1 06:48:51 10° SW 06:51:56 34° SSE 06:55:02 10° E visible
